{"data":{"norad_id":61776,"epoch":"2026-05-25T03:16:58.674144Z","epoch_age_seconds":53336,"freshness":"FRESH","line1":"1 61776U 24199AT  26145.13679021  .00052526  00000+0  69432-3 0  9995","line2":"2 61776  97.2933  21.1186 0006951  34.4067 325.7638 15.58161721134038","mean_motion":15.58161721,"eccentricity":0.0006951,"inclination_deg":97.2933,"raan_deg":21.1186,"arg_perigee_deg":34.4067,"mean_anomaly_deg":325.7638,"bstar":0.00069432,"rev_number":13403,"period_min":92.416594541665,"perigee_km":388.27083952578,"apogee_km":397.6840428219,"semimajor_km":6771.1144411738,"source":"CELESTRAK","updated_at":"2026-05-25T13:38:02.560744Z"}}